"read_dt","SO2 (ppb)","flags","PMT voltage (V)","lamp voltage (V)","lamp intensity (Hz)","internal temp (C)","react chamber temp (C)","sample flow (l/min)","pres (mmHg)","SO2 bkg (ppb)","SO2 coefficient"
2014-08-30 00:00:00,1732E-3,5C000000,-0724,0826,12187,026.0,045.4,0.479,733.8,01.19,0.508
2014-08-30 00:01:00,1717E-3,5C000000,-0724,0826,12198,026.0,045.4,0.480,733.8,01.19,0.508
2014-08-30 00:02:00,1826E-3,5C000000,-0724,0825,12233,026.0,045.4,0.480,733.8,01.19,0.508
2014-08-30 00:03:00,1670E-3,5C000000,-0724,0827,12320,026.0,045.4,0.480,733.8,01.19,0.508
2014-08-30 00:04:00,1793E-3,5C000000,-0724,0827,12226,026.0,045.4,0.479,733.9,01.19,0.508
2014-08-30 00:05:00,1801E-3,5C000000,-0724,0825,12039,026.0,045.4,0.479,733.9,01.19,0.508
2014-08-30 00:06:00,1782E-3,5C000000,-0724,0827,12159,026.0,045.4,0.479,733.9,01.19,0.508
2014-08-30 00:07:00,1948E-3,5C000000,-0724,0826,12303,026.0,045.4,0.479,733.9,01.19,0.508
2014-08-30 00:08:00,1787E-3,5C000000,-0724,0827,12328,026.0,045.4,0.479,733.9,01.19,0.508
2014-08-30 00:09:00,1923E-3,5C000000,-0724,0827,12245,026.0,045.4,0.479,733.9,01.19,0.508
2014-08-30 00:10:00,1697E-3,5C000000,-0724,0826,12184,026.0,045.4,0.479,733.8,01.19,0.508
2014-08-30 00:11:00,1759E-3,5C000000,-0724,0826,12210,026.0,045.4,0.479,733.9,01.19,0.508
2014-08-30 00:12:00,1811E-3,5C000000,-0724,0827,12251,026.0,045.4,0.479,733.9,01.19,0.508
2014-08-30 00:13:00,1938E-3,5C000000,-0724,0827,12382,026.0,045.4,0.479,733.8,01.19,0.508
2014-08-30 00:14:00,1795E-3,5C000000,-0724,0827,12228,026.0,045.4,0.480,733.9,01.19,0.508
2014-08-30 00:15:00,1817E-3,5C000000,-0724,0827,12242,026.0,045.4,0.480,733.9,01.19,0.508
2014-08-30 00:16:00,1792E-3,5C000000,-0724,0826,12298,026.0,045.4,0.480,733.9,01.19,0.508
2014-08-30 00:17:00,1733E-3,5C000000,-0724,0827,12102,026.0,045.4,0.480,733.9,01.19,0.508
2014-08-30 00:18:00,1681E-3,5C000000,-0724,0826,12299,026.0,045.4,0.480,733.9,01.19,0.508
2014-08-30 00:19:00,1825E-3,5C000000,-0724,0826,12280,026.0,045.4,0.479,733.9,01.19,0.508
2014-08-30 00:20:00,1814E-3,5C000000,-0724,0827,12143,026.0,045.4,0.479,733.9,01.19,0.508
2014-08-30 00:21:00,1796E-3,5C000000,-0724,0827,12181,026.0,045.4,0.479,733.9,01.19,0.508
2014-08-30 00:22:00,1737E-3,5C000000,-0724,0826,12048,026.0,045.4,0.479,733.9,01.19,0.508
2014-08-30 00:23:00,1729E-3,5C000000,-0724,0827,12364,026.0,045.4,0.479,733.9,01.19,0.508
2014-08-30 00:24:00,1946E-3,5C000000,-0724,0827,12317,026.0,045.4,0.479,733.9,01.19,0.508
2014-08-30 00:25:00,1718E-3,5C000000,-0724,0826,12282,026.0,045.4,0.479,733.9,01.19,0.508
2014-08-30 00:26:00,1687E-3,5C000000,-0724,0826,12333,026.0,045.4,0.480,733.9,01.19,0.508
2014-08-30 00:27:00,1678E-3,5C000000,-0724,0826,12257,026.0,045.5,0.480,734.0,01.19,0.508
2014-08-30 00:28:00,1776E-3,5C000000,-0724,0827,12390,026.0,045.4,0.480,733.9,01.19,0.508
2014-08-30 00:29:00,1828E-3,5C000000,-0724,0826,12135,026.0,045.4,0.480,733.9,01.19,0.508
2014-08-30 00:30:00,1738E-3,5C000000,-0724,0826,12394,026.0,045.4,0.480,734.0,01.19,0.508
2014-08-30 00:31:00,1734E-3,5C000000,-0724,0826,12063,026.0,045.4,0.479,733.9,01.19,0.508
2014-08-30 00:32:00,1737E-3,5C000000,-0724,0826,12262,026.0,045.4,0.479,733.8,01.19,0.508
2014-08-30 00:33:00,1781E-3,5C000000,-0724,0827,12343,026.0,045.4,0.479,733.9,01.19,0.508
2014-08-30 00:34:00,1804E-3,5C000000,-0724,0826,11966,026.0,045.4,0.479,733.8,01.19,0.508
2014-08-30 00:35:00,1806E-3,5C000000,-0724,0827,12372,026.0,045.4,0.479,733.8,01.19,0.508
2014-08-30 00:36:00,1682E-3,5C000000,-0724,0826,12279,026.0,045.4,0.479,733.8,01.19,0.508
2014-08-30 00:37:00,1708E-3,5C000000,-0724,0827,12332,026.0,045.4,0.479,733.8,01.19,0.508
2014-08-30 00:38:00,1766E-3,5C000000,-0724,0827,12247,026.0,045.4,0.479,733.7,01.19,0.508
2014-08-30 00:39:00,1719E-3,5C000000,-0724,0826,12373,026.0,045.4,0.479,733.8,01.19,0.508
2014-08-30 00:40:00,1697E-3,5C000000,-0724,0827,12298,026.0,045.4,0.480,733.7,01.19,0.508
2014-08-30 00:41:00,1955E-3,5C000000,-0724,0825,12183,026.0,045.4,0.480,733.8,01.19,0.508
2014-08-30 00:42:00,1849E-3,5C000000,-0724,0827,12293,026.0,045.4,0.479,733.6,01.19,0.508
2014-08-30 00:43:00,1621E-3,5C000000,-0724,0826,12325,026.0,045.4,0.479,733.7,01.19,0.508
2014-08-30 00:44:00,1934E-3,5C000000,-0724,0827,12418,026.0,045.4,0.479,733.8,01.19,0.508
2014-08-30 00:45:00,1733E-3,5C000000,-0724,0827,12128,026.0,045.4,0.479,733.6,01.19,0.508
2014-08-30 00:46:00,1611E-3,5C000000,-0724,0826,12209,026.0,045.4,0.479,733.7,01.19,0.508
2014-08-30 00:47:00,1802E-3,5C000000,-0724,0826,12297,026.0,045.4,0.479,733.7,01.19,0.508
2014-08-30 00:48:00,1777E-3,5C000000,-0724,0827,12195,026.0,045.4,0.479,733.7,01.19,0.508
2014-08-30 00:49:00,1823E-3,5C000000,-0724,0827,12072,026.0,045.4,0.479,733.6,01.19,0.508
2014-08-30 00:50:00,1733E-3,5C000000,-0724,0825,12350,026.0,045.4,0.479,733.8,01.19,0.508
2014-08-30 00:51:00,1704E-3,5C000000,-0724,0826,12269,026.0,045.4,0.479,733.8,01.19,0.508
2014-08-30 00:52:00,1697E-3,5C000000,-0724,0827,12105,026.0,045.5,0.479,733.7,01.19,0.508
2014-08-30 00:53:00,1744E-3,5C000000,-0724,0826,12182,026.0,045.4,0.479,733.7,01.19,0.508
2014-08-30 00:54:00,1865E-3,5C000000,-0724,0827,12276,026.0,045.4,0.479,733.6,01.19,0.508
2014-08-30 00:55:00,1783E-3,5C000000,-0724,0826,11843,026.0,045.4,0.479,733.8,01.19,0.508
2014-08-30 00:56:00,1592E-3,5C000000,-0724,0825,12278,026.0,045.4,0.479,733.9,01.19,0.508
2014-08-30 00:57:00,1783E-3,5C000000,-0724,0826,12269,026.0,045.4,0.479,733.8,01.19,0.508
2014-08-30 00:58:00,1809E-3,5C000000,-0724,0827,12302,026.0,045.4,0.479,733.8,01.19,0.508
2014-08-30 00:59:00,1805E-3,5C000000,-0724,0826,12340,026.0,045.4,0.479,733.6,01.19,0.508
2014-08-30 01:00:00,1875E-3,5C000000,-0724,0826,12191,026.0,045.4,0.479,733.6,01.19,0.508
2014-08-30 01:01:00,1754E-3,5C000000,-0724,0826,12367,026.1,045.4,0.479,733.7,01.19,0.508
2014-08-30 01:02:00,1869E-3,5C000000,-0724,0828,11978,026.0,045.4,0.479,733.8,01.19,0.508
2014-08-30 01:03:00,1806E-3,5C000000,-0724,0825,12256,026.0,045.4,0.480,733.7,01.19,0.508
2014-08-30 01:04:00,1788E-3,5C000000,-0724,0826,12171,026.0,045.4,0.480,733.8,01.19,0.508
2014-08-30 01:05:00,1851E-3,5C000000,-0724,0827,12075,026.1,045.4,0.479,733.7,01.19,0.508
2014-08-30 01:06:00,1750E-3,5C000000,-0724,0827,12274,026.0,045.4,0.479,733.6,01.19,0.508
2014-08-30 01:07:00,1707E-3,5C000000,-0724,0826,12265,026.1,045.4,0.479,733.8,01.19,0.508
2014-08-30 01:08:00,1775E-3,5C000000,-0724,0827,12195,026.0,045.4,0.479,733.8,01.19,0.508
2014-08-30 01:09:00,1814E-3,5C000000,-0724,0827,12262,026.0,045.4,0.479,733.7,01.19,0.508
2014-08-30 01:10:00,1796E-3,5C000000,-0724,0827,12344,026.0,045.4,0.479,733.8,01.19,0.508
2014-08-30 01:11:00,1873E-3,5C000000,-0724,0827,12230,026.0,045.4,0.479,733.8,01.19,0.508
2014-08-30 01:12:00,1741E-3,5C000000,-0724,0827,12242,026.0,045.4,0.479,733.8,01.19,0.508
2014-08-30 01:13:00,1778E-3,5C000000,-0724,0827,12012,026.0,045.4,0.479,733.7,01.19,0.508
2014-08-30 01:14:00,1803E-3,5C000000,-0724,0826,12255,026.1,045.4,0.480,733.6,01.19,0.508
2014-08-30 01:15:00,1767E-3,5C000000,-0724,0826,12218,026.0,045.4,0.479,733.6,01.19,0.508
2014-08-30 01:16:00,1909E-3,5C000000,-0724,0827,12179,026.0,045.4,0.479,733.7,01.19,0.508
2014-08-30 01:17:00,1782E-3,5C000000,-0724,0826,12301,026.0,045.4,0.479,733.7,01.19,0.508
2014-08-30 01:18:00,1726E-3,5C000000,-0724,0827,12316,026.0,045.4,0.479,733.7,01.19,0.508
2014-08-30 01:19:00,1660E-3,5C000000,-0724,0827,12338,026.0,045.4,0.479,733.7,01.19,0.508
2014-08-30 01:20:00,1839E-3,5C000000,-0724,0827,12124,026.0,045.4,0.479,733.5,01.19,0.508
2014-08-30 01:21:00,1763E-3,5C000000,-0724,0826,12095,026.0,045.4,0.479,733.6,01.19,0.508
2014-08-30 01:22:00,1752E-3,5C000000,-0724,0828,12258,026.0,045.4,0.479,733.5,01.19,0.508
2014-08-30 01:23:00,1821E-3,5C000000,-0724,0827,12103,026.1,045.4,0.479,733.7,01.19,0.508
2014-08-30 01:24:00,1739E-3,5C000000,-0724,0827,12112,026.1,045.4,0.479,733.6,01.19,0.508
2014-08-30 01:25:00,1848E-3,5C000000,-0724,0827,12248,026.0,045.4,0.479,733.5,01.19,0.508
2014-08-30 01:26:00,1813E-3,5C000000,-0724,0828,12248,026.0,045.4,0.479,733.7,01.19,0.508
2014-08-30 01:27:00,1693E-3,5C000000,-0724,0827,12272,026.0,045.4,0.479,733.7,01.19,0.508
2014-08-30 01:28:00,1760E-3,5C000000,-0724,0828,12122,026.1,045.4,0.479,733.6,01.19,0.508
2014-08-30 01:29:00,1743E-3,5C000000,-0724,0827,12132,026.1,045.4,0.479,733.6,01.19,0.508
2014-08-30 01:30:00,1816E-3,5C000000,-0724,0827,12295,026.0,045.4,0.479,733.6,01.19,0.508
2014-08-30 01:31:00,1621E-3,5C000000,-0724,0827,12282,026.1,045.4,0.479,733.6,01.19,0.508
2014-08-30 01:32:00,1794E-3,5C000000,-0724,0826,11984,026.0,045.4,0.479,733.6,01.19,0.508
2014-08-30 01:33:00,1682E-3,5C000000,-0724,0827,12205,026.1,045.4,0.479,733.6,01.19,0.508
2014-08-30 01:34:00,1784E-3,5C000000,-0724,0826,12161,026.0,045.4,0.479,733.6,01.19,0.508
2014-08-30 01:35:00,1826E-3,5C000000,-0724,0827,12064,026.0,045.4,0.479,733.6,01.19,0.508
2014-08-30 01:36:00,1769E-3,5C000000,-0724,0827,12241,026.0,045.4,0.479,733.4,01.19,0.508
2014-08-30 01:37:00,1792E-3,5C000000,-0724,0828,12154,026.0,045.4,0.479,733.5,01.19,0.508
2014-08-30 01:38:00,1733E-3,5C000000,-0724,0827,12459,026.0,045.4,0.479,733.3,01.19,0.508
2014-08-30 01:39:00,1789E-3,5C000000,-0724,0826,12112,026.0,045.4,0.479,733.4,01.19,0.508
2014-08-30 01:40:00,1774E-3,5C000000,-0724,0827,12189,026.0,045.4,0.479,733.3,01.19,0.508
2014-08-30 01:41:00,1825E-3,5C000000,-0724,0827,12189,026.0,045.4,0.479,733.3,01.19,0.508
2014-08-30 01:42:00,1867E-3,5C000000,-0724,0827,12289,026.0,045.4,0.479,733.3,01.19,0.508
2014-08-30 01:43:00,1724E-3,5C000000,-0724,0826,12225,026.0,045.4,0.479,733.1,01.19,0.508
2014-08-30 01:44:00,1804E-3,5C000000,-0724,0826,12105,026.1,045.4,0.479,733.2,01.19,0.508
2014-08-30 01:45:00,1626E-3,5C000000,-0724,0828,12191,026.1,045.4,0.479,733.1,01.19,0.508
2014-08-30 01:46:00,1805E-3,5C000000,-0724,0827,12290,026.0,045.4,0.479,733.2,01.19,0.508
2014-08-30 01:47:00,1808E-3,5C000000,-0724,0827,12253,026.0,045.4,0.479,733.3,01.19,0.508
2014-08-30 01:48:00,1809E-3,5C000000,-0724,0827,12188,026.1,045.4,0.479,733.3,01.19,0.508
2014-08-30 01:49:00,1690E-3,5C000000,-0724,0826,12309,026.1,045.4,0.479,733.1,01.19,0.508
2014-08-30 01:50:00,1738E-3,5C000000,-0724,0827,12295,026.0,045.4,0.479,733.2,01.19,0.508
2014-08-30 01:51:00,1868E-3,5C000000,-0724,0827,12020,026.1,045.4,0.479,733.4,01.19,0.508
2014-08-30 01:52:00,1939E-3,5C000000,-0724,0827,12309,026.0,045.4,0.479,733.4,01.19,0.508
2014-08-30 01:53:00,1804E-3,5C000000,-0724,0827,12114,026.0,045.4,0.479,733.4,01.19,0.508
2014-08-30 01:54:00,1890E-3,5C000000,-0724,0827,12281,026.0,045.4,0.479,733.5,01.19,0.508
2014-08-30 01:55:00,1706E-3,5C000000,-0724,0826,12287,026.0,045.4,0.479,733.4,01.19,0.508
2014-08-30 01:56:00,1830E-3,5C000000,-0724,0827,12103,026.0,045.4,0.479,733.5,01.19,0.508
2014-08-30 01:57:00,1794E-3,5C000000,-0724,0827,12306,026.0,045.4,0.479,733.3,01.19,0.508
2014-08-30 01:58:00,1794E-3,5C000000,-0724,0827,12321,026.0,045.4,0.479,733.4,01.19,0.508
2014-08-30 01:59:00,1656E-3,5C000000,-0724,0827,12238,026.0,045.4,0.479,733.2,01.19,0.508
2014-08-30 02:00:00,1900E-3,5C000000,-0724,0826,12338,026.0,045.4,0.479,733.5,01.19,0.508
2014-08-30 02:01:00,1848E-3,5C000000,-0724,0827,12317,026.0,045.4,0.479,733.5,01.19,0.508
2014-08-30 02:02:00,1852E-3,5C000000,-0724,0827,12133,026.0,045.4,0.479,733.6,01.19,0.508
2014-08-30 02:03:00,1732E-3,5C000000,-0724,0827,12307,026.0,045.4,0.479,733.5,01.19,0.508
2014-08-30 02:04:00,1636E-3,5C000000,-0724,0827,12272,026.0,045.4,0.479,733.5,01.19,0.508
2014-08-30 02:05:00,1832E-3,5C000000,-0724,0828,12264,026.0,045.4,0.479,733.7,01.19,0.508
2014-08-30 02:06:00,1707E-3,5C000000,-0724,0826,12237,026.0,045.4,0.479,733.5,01.19,0.508
2014-08-30 02:07:00,1804E-3,5C000000,-0724,0827,12203,026.0,045.4,0.479,733.7,01.19,0.508
2014-08-30 02:08:00,1786E-3,5C000000,-0724,0827,12233,026.0,045.4,0.479,733.5,01.19,0.508
2014-08-30 02:09:00,1801E-3,5C000000,-0724,0827,12247,026.0,045.4,0.479,733.5,01.19,0.508
2014-08-30 02:10:00,1657E-3,5C000000,-0724,0827,12354,026.0,045.4,0.480,733.7,01.19,0.508
2014-08-30 02:11:00,1776E-3,5C000000,-0724,0827,12257,026.0,045.4,0.480,733.8,01.19,0.508
2014-08-30 02:12:00,1838E-3,5C000000,-0724,0827,12076,026.0,045.4,0.479,733.7,01.19,0.508
2014-08-30 02:13:00,1758E-3,5C000000,-0724,0827,12279,026.0,045.4,0.479,733.8,01.19,0.508
2014-08-30 02:14:00,1712E-3,5C000000,-0724,0826,12255,026.0,045.4,0.479,734.0,01.19,0.508
2014-08-30 02:15:00,1836E-3,5C000000,-0724,0827,12145,026.0,045.4,0.479,733.9,01.19,0.508
2014-08-30 02:16:00,1678E-3,5C000000,-0724,0826,12313,026.0,045.4,0.479,733.9,01.19,0.508
2014-08-30 02:17:00,1806E-3,5C000000,-0724,0827,12161,026.0,045.4,0.479,733.7,01.19,0.508
2014-08-30 02:18:00,1828E-3,5C000000,-0724,0827,12165,026.0,045.4,0.479,733.9,01.19,0.508
2014-08-30 02:19:00,1800E-3,5C000000,-0724,0827,12220,026.0,045.4,0.479,733.8,01.19,0.508
2014-08-30 02:20:00,1699E-3,5C000000,-0724,0827,12147,026.0,045.4,0.479,733.9,01.19,0.508
2014-08-30 02:21:00,1631E-3,5C000000,-0724,0826,12199,026.0,045.4,0.479,733.8,01.19,0.508
2014-08-30 02:22:00,1698E-3,5C000000,-0724,0827,12144,026.0,045.4,0.479,733.8,01.19,0.508
2014-08-30 02:23:00,1812E-3,5C000000,-0724,0827,12152,026.0,045.4,0.479,734.0,01.19,0.508
2014-08-30 02:24:00,1898E-3,5C000000,-0724,0828,12210,026.0,045.4,0.480,733.8,01.19,0.508
2014-08-30 02:25:00,1814E-3,5C000000,-0724,0827,12263,026.0,045.4,0.480,734.1,01.19,0.508
2014-08-30 02:26:00,1918E-3,5C000000,-0724,0826,12136,026.0,045.4,0.480,734.1,01.19,0.508
2014-08-30 02:27:00,1757E-3,5C000000,-0724,0827,12380,026.0,045.4,0.480,734.1,01.19,0.508
2014-08-30 02:28:00,1851E-3,5C000000,-0724,0827,12419,026.0,045.4,0.480,734.1,01.19,0.508
2014-08-30 02:29:00,1924E-3,5C000000,-0724,0826,12264,026.0,045.4,0.480,734.1,01.19,0.508
2014-08-30 02:30:00,1733E-3,5C000000,-0724,0826,12255,026.0,045.4,0.479,734.0,01.19,0.508
2014-08-30 02:31:00,1872E-3,5C000000,-0724,0827,12406,026.0,045.4,0.479,733.9,01.19,0.508
2014-08-30 02:32:00,1896E-3,5C000000,-0724,0827,12274,026.0,045.4,0.479,734.1,01.19,0.508
2014-08-30 02:33:00,1628E-3,5C000000,-0724,0827,12276,026.0,045.4,0.479,734.0,01.19,0.508
2014-08-30 02:34:00,1834E-3,5C000000,-0724,0827,12312,026.0,045.4,0.479,734.1,01.19,0.508
2014-08-30 02:35:00,1743E-3,5C000000,-0724,0826,12105,026.0,045.4,0.479,734.1,01.19,0.508
2014-08-30 02:36:00,1797E-3,5C000000,-0724,0826,12196,026.0,045.4,0.479,734.1,01.19,0.508
2014-08-30 02:37:00,1739E-3,5C000000,-0724,0827,12228,026.0,045.4,0.479,733.8,01.19,0.508
2014-08-30 02:38:00,1858E-3,5C000000,-0724,0827,12196,026.0,045.4,0.479,734.0,01.19,0.508
2014-08-30 02:39:00,1844E-3,5C000000,-0724,0827,12167,026.0,045.4,0.479,733.8,01.19,0.508
2014-08-30 02:40:00,1673E-3,5C000000,-0724,0827,12256,026.0,045.4,0.479,733.8,01.19,0.508
2014-08-30 02:41:00,1738E-3,5C000000,-0724,0827,12264,026.0,045.4,0.480,733.9,01.19,0.508
2014-08-30 02:42:00,1773E-3,5C000000,-0724,0827,12363,026.0,045.4,0.480,734.0,01.19,0.508
2014-08-30 02:43:00,1788E-3,5C000000,-0724,0827,12170,026.0,045.4,0.480,734.0,01.19,0.508
2014-08-30 02:44:00,1729E-3,5C000000,-0724,0827,12194,026.0,045.4,0.480,733.6,01.19,0.508
2014-08-30 02:45:00,1872E-3,5C000000,-0724,0827,12356,026.0,045.5,0.480,733.8,01.19,0.508
2014-08-30 02:46:00,1795E-3,5C000000,-0724,0827,12136,026.0,045.4,0.479,733.9,01.19,0.508
2014-08-30 02:47:00,1846E-3,5C000000,-0724,0827,12249,026.0,045.4,0.479,733.7,01.19,0.508
2014-08-30 02:48:00,1716E-3,5C000000,-0724,0827,12252,026.0,045.4,0.479,733.8,01.19,0.508
2014-08-30 02:49:00,1760E-3,5C000000,-0724,0827,12217,026.0,045.4,0.479,733.8,01.19,0.508
2014-08-30 02:50:00,1864E-3,5C000000,-0724,0826,12128,026.0,045.4,0.479,733.9,01.19,0.508
2014-08-30 02:51:00,1707E-3,5C000000,-0724,0826,12250,026.0,045.4,0.479,733.6,01.19,0.508
2014-08-30 02:52:00,1823E-3,5C000000,-0724,0827,12283,026.0,045.4,0.479,733.8,01.19,0.508
2014-08-30 02:53:00,1783E-3,5C000000,-0724,0826,12306,026.0,045.4,0.479,733.7,01.19,0.508
2014-08-30 02:54:00,1853E-3,5C000000,-0724,0826,12288,026.0,045.4,0.479,733.7,01.19,0.508
2014-08-30 02:55:00,1707E-3,5C000000,-0724,0827,12136,026.0,045.4,0.480,733.9,01.19,0.508
2014-08-30 02:56:00,1680E-3,5C000000,-0724,0827,12047,026.0,045.4,0.480,733.9,01.19,0.508
2014-08-30 02:57:00,1861E-3,5C000000,-0724,0827,12294,026.0,045.4,0.480,734.1,01.19,0.508
2014-08-30 02:58:00,1849E-3,5C000000,-0724,0826,12162,026.0,045.4,0.479,733.8,01.19,0.508
2014-08-30 02:59:00,1797E-3,5C000000,-0724,0827,12091,026.0,045.4,0.480,734.2,01.18,0.508
2014-08-30 03:00:00,1771E-3,5C000000,-0724,0828,12329,026.0,045.4,0.479,733.9,01.19,0.508
2014-08-30 03:01:00,1785E-3,5C000000,-0724,0827,12332,026.0,045.4,0.479,733.9,01.19,0.508
2014-08-30 03:02:00,1714E-3,5C000000,-0724,0827,12198,026.0,045.4,0.479,733.9,01.19,0.508
2014-08-30 03:03:00,1741E-3,5C000000,-0724,0826,12237,026.0,045.4,0.479,734.1,01.19,0.508
2014-08-30 03:04:00,1773E-3,5C000000,-0724,0827,12325,026.0,045.4,0.479,733.8,01.19,0.508
2014-08-30 03:05:00,1673E-3,5C000000,-0724,0827,12091,026.0,045.4,0.479,733.8,01.19,0.508
2014-08-30 03:06:00,1631E-3,5C000000,-0724,0827,12257,026.0,045.4,0.479,733.7,01.19,0.508
2014-08-30 03:07:00,1704E-3,5C000000,-0724,0827,12318,026.0,045.4,0.479,733.5,01.19,0.508
2014-08-30 03:08:00,1837E-3,5C000000,-0724,0827,12208,026.0,045.4,0.479,733.5,01.19,0.508
2014-08-30 03:09:00,1749E-3,5C000000,-0724,0828,12181,026.0,045.4,0.479,733.7,01.19,0.508
2014-08-30 03:10:00,1739E-3,5C000000,-0724,0826,12270,026.0,045.4,0.479,733.8,01.19,0.508
2014-08-30 03:11:00,1836E-3,5C000000,-0724,0827,12213,026.0,045.4,0.479,733.6,01.19,0.508
2014-08-30 03:12:00,1783E-3,5C000000,-0724,0826,12189,026.0,045.4,0.479,733.7,01.19,0.508
2014-08-30 03:13:00,1835E-3,5C000000,-0724,0826,12151,026.0,045.4,0.480,733.5,01.19,0.508
2014-08-30 03:14:00,1855E-3,5C000000,-0724,0826,12302,026.0,045.4,0.480,733.6,01.19,0.508
2014-08-30 03:15:00,1760E-3,5C000000,-0724,0826,12065,026.0,045.4,0.479,733.8,01.19,0.508
2014-08-30 03:16:00,1821E-3,5C000000,-0724,0827,12272,026.0,045.4,0.479,733.7,01.19,0.508
2014-08-30 03:17:00,1782E-3,5C000000,-0724,0827,12156,026.0,045.4,0.479,733.8,01.19,0.508
2014-08-30 03:18:00,1781E-3,5C000000,-0724,0828,12094,026.0,045.4,0.479,733.8,01.19,0.508
2014-08-30 03:19:00,1808E-3,5C000000,-0724,0826,12153,026.0,045.4,0.479,733.9,01.19,0.508
2014-08-30 03:20:00,1716E-3,5C000000,-0724,0827,12240,026.0,045.4,0.479,733.9,01.19,0.508
2014-08-30 03:21:00,1851E-3,5C000000,-0724,0827,12360,026.0,045.4,0.479,734.1,01.19,0.508
2014-08-30 03:22:00,1725E-3,5C000000,-0724,0827,12185,026.0,045.4,0.479,734.0,01.19,0.508
2014-08-30 03:23:00,1765E-3,5C000000,-0724,0827,12178,026.0,045.4,0.479,734.1,01.19,0.508
2014-08-30 03:24:00,1712E-3,5C000000,-0724,0827,12227,026.0,045.4,0.479,734.3,01.18,0.508
2014-08-30 03:25:00,1817E-3,5C000000,-0724,0827,12227,026.0,045.4,0.479,734.0,01.19,0.508
2014-08-30 03:26:00,1754E-3,5C000000,-0724,0827,12226,026.0,045.4,0.479,734.1,01.19,0.508
2014-08-30 03:27:00,1825E-3,5C000000,-0724,0827,12018,026.0,045.4,0.480,734.1,01.19,0.508
2014-08-30 03:28:00,1761E-3,5C000000,-0724,0826,12237,026.0,045.4,0.479,734.2,01.18,0.508
2014-08-30 03:29:00,1894E-3,5C000000,-0724,0826,12123,026.0,045.4,0.480,734.1,01.19,0.508
2014-08-30 03:30:00,1728E-3,5C000000,-0724,0828,12238,026.0,045.4,0.480,734.0,01.19,0.508
2014-08-30 03:31:00,1822E-3,5C000000,-0724,0827,12277,026.0,045.4,0.480,733.9,01.19,0.508
2014-08-30 03:32:00,1690E-3,5C000000,-0724,0827,12044,026.0,045.4,0.480,734.1,01.19,0.508
2014-08-30 03:33:00,1737E-3,5C000000,-0724,0827,12185,026.0,045.4,0.480,734.1,01.19,0.508
2014-08-30 03:34:00,1752E-3,5C000000,-0724,0827,12218,026.0,045.4,0.480,734.1,01.19,0.508
2014-08-30 03:35:00,1616E-3,5C000000,-0724,0827,12267,026.0,045.4,0.480,734.1,01.19,0.508
2014-08-30 03:36:00,1683E-3,5C000000,-0724,0827,12419,026.0,045.4,0.479,734.0,01.19,0.508
2014-08-30 03:37:00,1849E-3,5C000000,-0724,0826,11930,026.0,045.4,0.479,733.8,01.19,0.508
2014-08-30 03:38:00,1918E-3,5C000000,-0724,0827,12375,026.0,045.4,0.479,733.9,01.19,0.508
2014-08-30 03:39:00,1711E-3,5C000000,-0724,0826,12239,026.0,045.5,0.479,734.1,01.19,0.508
2014-08-30 03:40:00,1706E-3,5C000000,-0724,0827,12275,026.0,045.4,0.479,733.8,01.19,0.508
2014-08-30 03:41:00,1839E-3,5C000000,-0724,0827,12016,026.0,045.4,0.479,733.9,01.19,0.508
2014-08-30 03:42:00,1815E-3,5C000000,-0724,0827,12363,026.0,045.4,0.479,734.1,01.19,0.508
2014-08-30 03:43:00,1724E-3,5C000000,-0724,0827,12293,026.0,045.4,0.479,733.9,01.19,0.508
2014-08-30 03:44:00,1755E-3,5C000000,-0724,0826,12269,026.0,045.4,0.479,733.9,01.19,0.508
2014-08-30 03:45:00,1774E-3,5C000000,-0724,0827,12154,026.0,045.4,0.479,733.9,01.19,0.508
2014-08-30 03:46:00,1769E-3,5C000000,-0724,0827,12338,026.0,045.4,0.479,734.0,01.19,0.508
2014-08-30 03:47:00,1827E-3,5C000000,-0724,0828,12263,026.0,045.4,0.479,733.9,01.19,0.508
2014-08-30 03:48:00,1786E-3,5C000000,-0724,0827,12314,026.0,045.4,0.480,733.9,01.19,0.508
2014-08-30 03:49:00,1710E-3,5C000000,-0724,0827,12168,026.0,045.4,0.480,733.9,01.19,0.508
2014-08-30 03:50:00,1931E-3,5C000000,-0724,0826,12244,026.0,045.4,0.480,733.9,01.19,0.508
2014-08-30 03:51:00,1603E-3,5C000000,-0724,0828,12318,026.0,045.4,0.480,733.8,01.19,0.508
2014-08-30 03:52:00,1727E-3,5C000000,-0724,0826,12006,026.0,045.4,0.480,734.0,01.19,0.508
2014-08-30 03:53:00,1733E-3,5C000000,-0724,0827,12233,026.0,045.4,0.480,734.0,01.19,0.508
2014-08-30 03:54:00,1748E-3,5C000000,-0724,0827,12376,026.0,045.4,0.479,734.1,01.19,0.508
2014-08-30 03:55:00,1875E-3,5C000000,-0724,0827,12246,026.0,045.4,0.479,733.7,01.19,0.508
2014-08-30 03:56:00,1788E-3,5C000000,-0724,0827,12228,026.0,045.4,0.479,733.8,01.19,0.508
2014-08-30 03:57:00,1626E-3,5C000000,-0724,0827,12228,026.0,045.4,0.479,734.2,01.18,0.508
2014-08-30 03:58:00,1766E-3,5C000000,-0724,0827,12235,026.0,045.4,0.479,734.1,01.19,0.508
2014-08-30 03:59:00,1820E-3,5C000000,-0724,0827,12211,026.0,045.4,0.479,734.3,01.18,0.508
2014-08-30 04:00:00,1824E-3,5C000000,-0724,0827,12162,026.0,045.4,0.479,734.3,01.18,0.508
2014-08-30 04:01:00,1711E-3,5C000000,-0724,0827,12145,026.0,045.4,0.479,734.4,01.18,0.508
2014-08-30 04:02:00,1822E-3,5C000000,-0724,0828,12219,026.0,045.4,0.479,734.1,01.19,0.508
2014-08-30 04:03:00,1790E-3,5C000000,-0724,0829,12385,026.0,045.4,0.479,734.4,01.18,0.508
2014-08-30 04:04:00,1715E-3,5C000000,-0724,0828,12245,026.0,045.4,0.479,734.5,01.18,0.508
2014-08-30 04:05:00,1759E-3,5C000000,-0724,0828,12203,026.0,045.4,0.479,734.5,01.18,0.508
2014-08-30 04:06:00,1712E-3,5C000000,-0724,0828,12146,026.0,045.4,0.479,734.5,01.18,0.508
2014-08-30 04:07:00,1753E-3,5C000000,-0724,0827,12265,026.0,045.4,0.479,734.6,01.18,0.508
2014-08-30 04:08:00,1790E-3,5C000000,-0724,0827,12268,026.0,045.4,0.479,734.4,01.18,0.508
2014-08-30 04:09:00,1827E-3,5C000000,-0724,0827,12362,026.0,045.4,0.480,734.5,01.18,0.508
2014-08-30 04:10:00,1731E-3,5C000000,-0724,0827,12269,026.0,045.4,0.480,734.5,01.18,0.508
2014-08-30 04:11:00,1773E-3,5C000000,-0724,0826,12228,026.0,045.4,0.480,734.5,01.18,0.508
2014-08-30 04:12:00,1779E-3,5C000000,-0724,0828,12328,026.0,045.4,0.480,734.7,01.18,0.508
2014-08-30 04:13:00,1825E-3,5C000000,-0724,0827,12276,026.0,045.4,0.480,734.7,01.18,0.508
2014-08-30 04:14:00,1746E-3,5C000000,-0724,0827,12172,026.0,045.4,0.480,734.8,01.18,0.508
2014-08-30 04:15:00,1819E-3,5C000000,-0724,0828,12422,026.0,045.4,0.480,734.7,01.18,0.508
2014-08-30 04:16:00,1711E-3,5C000000,-0724,0826,12246,026.0,045.4,0.480,734.5,01.18,0.508
2014-08-30 04:17:00,1762E-3,5C000000,-0724,0827,12138,026.0,045.4,0.480,734.6,01.18,0.508
2014-08-30 04:18:00,1859E-3,5C000000,-0724,0827,12367,026.0,045.4,0.480,734.7,01.18,0.508
2014-08-30 04:19:00,1695E-3,5C000000,-0724,0826,12172,026.0,045.4,0.480,734.8,01.18,0.508
2014-08-30 04:20:00,1908E-3,5C000000,-0724,0827,12126,026.0,045.4,0.480,734.5,01.18,0.508